• In Kazakhstan
  • List of Countries
  • For 7 days
  • Water Temperature
  • Satellite Maps
  • Weather Map
  • News
  • Weather Widgets
  • user-avatar
    Login

    Hourly Weather Hartford

    Today, 25 September, Monday

    Time Temperature Precipitation Wind Pressure Humidity
    00:00 +21°C° 0 mm 0 mps 760 mmHg 84%
    01:00 +23°C° 0 mm 1 mps 760 mmHg 80%
    02:00 +23°C° 0 mm 1 mps 760 mmHg 80%
    03:00 +23°C° 0 mm 1 mps 760 mmHg 81%
    04:00 +23°C° 0 mm 1 mps 760 mmHg 82%
    05:00 +23°C° 0 mm 1 mps 760 mmHg 81%
    06:00 +24°C° 0 mm 1 mps 760 mmHg 80%
    07:00 +24°C° 0 mm 1 mps 761 mmHg 79%
    08:00 +27°C° 0 mm 1 mps 761 mmHg 71%
    09:00 +29°C° 0 mm 1 mps 761 mmHg 63%
    10:00 +32°C° 0 mm 1 mps 761 mmHg 54%
    11:00 +33°C° 0 mm 1 mps 761 mmHg 51%
    12:00 +34°C° 0 mm 1 mps 761 mmHg 48%
    13:00 +35°C° 0 mm 1 mps 760 mmHg 45%
    14:00 +34°C° 0 mm 1 mps 760 mmHg 49%
    15:00 +33°C° 0 mm 1 mps 760 mmHg 52%
    16:00 +32°C° 0 mm 1 mps 759 mmHg 55%
    17:00 +29°C° 0 mm 1 mps 760 mmHg 64%
    18:00 +27°C° 0 mm 1 mps 760 mmHg 73%
    19:00 +24°C° 0 mm 1 mps 760 mmHg 82%
    20:00 +23°C° 0 mm 1 mps 760 mmHg 85%
    21:00 +22°C° 0 mm 1 mps 760 mmHg 89%
    22:00 +21°C° 0 mm 1 mps 761 mmHg 92%
    23:00 +21°C° 0 mm 1 mps 761 mmHg 93%

    Tomorrow, 26 September, Tuesday

    Time Temperature Precipitation Wind Pressure Humidity
    00:00 +19°C° 0 mm 0 mps 761 mmHg 94%
    01:00 +18°C° 0 mm 0 mps 760 mmHg 95%
    02:00 +18°C° 0 mm 0 mps 760 mmHg 95%
    03:00 +18°C° 0 mm 0 mps 760 mmHg 96%
    04:00 +18°C° 0 mm 0 mps 760 mmHg 96%
    05:00 +19°C° 0 mm 0 mps 760 mmHg 93%
    06:00 +19°C° 0 mm 0 mps 760 mmHg 90%
    07:00 +20°C° 0 mm 0 mps 761 mmHg 87%
    08:00 +23°C° 0 mm 0 mps 761 mmHg 77%
    09:00 +26°C° 0 mm 0 mps 760 mmHg 67%
    10:00 +29°C° 0 mm 0 mps 760 mmHg 56%
    11:00 +32°C° 0 mm 1 mps 760 mmHg 52%
    12:00 +33°C° 0 mm 1 mps 760 mmHg 48%
    13:00 +34°C° 0 mm 1 mps 760 mmHg 44%
    14:00 +33°C° 0 mm 1 mps 759 mmHg 48%
    15:00 +32°C° 0 mm 1 mps 759 mmHg 51%
    16:00 +31°C° 0 mm 2 mps 758 mmHg 54%
    17:00 +28°C° 0 mm 1 mps 758 mmHg 63%
    18:00 +26°C° 0 mm 1 mps 759 mmHg 72%
    19:00 +23°C° 0 mm 1 mps 759 mmHg 82%
    20:00 +23°C° 0 mm 1 mps 759 mmHg 84%
    21:00 +22°C° 0 mm 1 mps 759 mmHg 87%
    22:00 +19°C° 0 mm 0 mps 759 mmHg 90%
    23:00 +19°C° 0 mm 0 mps 759 mmHg 91%

    Day after tomorrow, 27 September, Wednesday

    Time Temperature Precipitation Wind Pressure Humidity
    00:00 +18°C° 0 mm 0 mps 758 mmHg 92%
    01:00 +18°C° 0 mm 0 mps 758 mmHg 93%
    02:00 +18°C° 0 mm 0 mps 758 mmHg 94%
    03:00 +18°C° 0 mm 0 mps 758 mmHg 94%
    04:00 +18°C° 0 mm 0 mps 758 mmHg 94%
    05:00 +19°C° 0 mm 0 mps 757 mmHg 91%
    06:00 +19°C° 0 mm 0 mps 757 mmHg 88%
    07:00 +20°C° 0 mm 0 mps 757 mmHg 85%
    08:00 +25°C° 0 mm 1 mps 757 mmHg 76%
    09:00 +28°C° 0 mm 1 mps 757 mmHg 66%
    10:00 +30°C° 0 mm 1 mps 757 mmHg 57%
    11:00 +31°C° 0.1 mm 2 mps 756 mmHg 57%
    12:00 +32°C° 0.1 mm 2 mps 756 mmHg 56%
    13:00 +33°C° 0.1 mm 3 mps 755 mmHg 55%
    14:00 +31°C° 0.8 mm 2 mps 755 mmHg 61%
    15:00 +30°C° 0.8 mm 2 mps 755 mmHg 67%
    16:00 +29°C° 0.8 mm 2 mps 754 mmHg 72%
    17:00 +28°C° 0.1 mm 2 mps 754 mmHg 79%
    18:00 +26°C° 0.1 mm 1 mps 754 mmHg 86%
    19:00 +24°C° 0.1 mm 1 mps 755 mmHg 93%
    20:00 +24°C° 0 mm 1 mps 754 mmHg 94%
    21:00 +23°C° 0 mm 1 mps 754 mmHg 95%
    22:00 +23°C° 0 mm 1 mps 754 mmHg 97%
    23:00 +22°C° 0 mm 1 mps 753 mmHg 97%

    28 September, Thursday

    Time Temperature Precipitation Wind Pressure Humidity
    00:00 +20°C° 0 mm 0 mps 753 mmHg 97%
    01:00 +20°C° 0 mm 0 mps 753 mmHg 98%
    02:00 +22°C° 0 mm 1 mps 753 mmHg 97%
    03:00 +22°C° 0 mm 1 mps 753 mmHg 97%
    04:00 +21°C° 0 mm 2 mps 752 mmHg 97%
    05:00 +21°C° 0 mm 2 mps 752 mmHg 91%
    06:00 +20°C° 0 mm 3 mps 752 mmHg 85%
    07:00 +20°C° 0 mm 4 mps 752 mmHg 80%
    08:00 +21°C° 0 mm 4 mps 752 mmHg 68%
    09:00 +23°C° 0 mm 5 mps 752 mmHg 56%
    10:00 +25°C° 0 mm 5 mps 752 mmHg 44%
    11:00 +26°C° 0 mm 5 mps 752 mmHg 42%
    12:00 +26°C° 0 mm 5 mps 752 mmHg 40%
    13:00 +27°C° 0 mm 5 mps 751 mmHg 39%
    14:00 +26°C° 0 mm 5 mps 752 mmHg 40%
    15:00 +26°C° 0 mm 5 mps 752 mmHg 42%
    16:00 +25°C° 0 mm 5 mps 752 mmHg 43%
    17:00 +22°C° 0 mm 4 mps 752 mmHg 46%
    18:00 +20°C° 0 mm 4 mps 753 mmHg 50%
    19:00 +19°C° 0 mm 4 mps 754 mmHg 53%
    20:00 +17°C° 0 mm 3 mps 754 mmHg 57%
    21:00 +16°C° 0 mm 3 mps 755 mmHg 60%
    22:00 +14°C° 0 mm 3 mps 755 mmHg 64%
    23:00 +14°C° 0 mm 2 mps 755 mmHg 67%

    29 September, Friday

    Time Temperature Precipitation Wind Pressure Humidity
    00:00 +14°C° 0 mm 2 mps 755 mmHg 70%
    01:00 +13°C° 0 mm 2 mps 756 mmHg 73%
    02:00 +12°C° 0 mm 2 mps 756 mmHg 76%
    03:00 +12°C° 0 mm 2 mps 756 mmHg 79%
    04:00 +11°C° 0 mm 1 mps 756 mmHg 82%
    05:00 +10°C° 0 mm 2 mps 756 mmHg 79%
    06:00 +12°C° 0 mm 2 mps 757 mmHg 76%
    07:00 +12°C° 0 mm 2 mps 757 mmHg 73%
    08:00 +14°C° 0 mm 2 mps 757 mmHg 63%
    09:00 +17°C° 0 mm 2 mps 757 mmHg 53%
    10:00 +19°C° 0 mm 3 mps 756 mmHg 42%
    11:00 +20°C° 0 mm 3 mps 756 mmHg 39%
    12:00 +21°C° 0 mm 3 mps 755 mmHg 36%
    13:00 +22°C° 0 mm 3 mps 755 mmHg 33%
    14:00 +23°C° 0 mm 2 mps 755 mmHg 35%
    15:00 +23°C° 0 mm 2 mps 755 mmHg 38%
    16:00 +23°C° 0 mm 2 mps 755 mmHg 41%
    17:00 +20°C° 0.4 mm 2 mps 755 mmHg 54%
    18:00 +18°C° 0.4 mm 2 mps 755 mmHg 67%
    19:00 +16°C° 0.4 mm 2 mps 756 mmHg 80%
    20:00 +15°C° 0.1 mm 2 mps 756 mmHg 83%
    21:00 +14°C° 0.1 mm 2 mps 756 mmHg 87%
    22:00 +13°C° 0.1 mm 2 mps 756 mmHg 91%
    23:00 +13°C° 0 mm 2 mps 757 mmHg 91%

    30 September, Saturday

    Time Temperature Precipitation Wind Pressure Humidity
    00:00 +12°C° 0 mm 2 mps 757 mmHg 91%
    01:00 +10°C° 0 mm 2 mps 757 mmHg 91%
    02:00 +10°C° 0 mm 2 mps 758 mmHg 90%
    03:00 +9°C° 0 mm 2 mps 759 mmHg 89%
    04:00 +9°C° 0 mm 3 mps 759 mmHg 87%
    05:00 +9°C° 0 mm 3 mps 760 mmHg 84%
    06:00 +9°C° 0 mm 3 mps 761 mmHg 81%
    07:00 +9°C° 0 mm 3 mps 761 mmHg 78%
    08:00 +11°C° 0 mm 3 mps 762 mmHg 66%
    09:00 +13°C° 0 mm 4 mps 762 mmHg 54%
    10:00 +15°C° 0 mm 4 mps 763 mmHg 42%
    11:00 +17°C° 0 mm 4 mps 762 mmHg 39%
    12:00 +18°C° 0 mm 4 mps 762 mmHg 37%
    13:00 +18°C° 0 mm 4 mps 762 mmHg 34%
    14:00 +18°C° 0 mm 4 mps 762 mmHg 35%
    15:00 +18°C° 0 mm 4 mps 763 mmHg 36%
    16:00 +18°C° 0 mm 4 mps 763 mmHg 37%
    17:00 +16°C° 0 mm 3 mps 763 mmHg 43%
    18:00 +14°C° 0 mm 2 mps 764 mmHg 49%
    19:00 +12°C° 0 mm 1 mps 765 mmHg 56%
    20:00 +11°C° 0 mm 1 mps 765 mmHg 58%
    21:00 +10°C° 0 mm 1 mps 766 mmHg 61%
    22:00 +9°C° 0 mm 1 mps 766 mmHg 64%
    23:00 +9°C° 0 mm 1 mps 766 mmHg 66%
    Show more